Warroad, MN

12:18 PM CDT on July 24, 2016 (GMT -0500)
Warroad International-Carlson

Weather History for KRRT - August, 2013

Change the Weather History Date:

Sunday, August 25, 2013

  Actual Average Record
Temperature  
Mean Temperature 76 °F -  
Max Temperature 87 °F 78 °F 90 °F (1953)
Min Temperature 66 °F 55 °F 38 °F (1950)
Cooling Degree Days 12    
Growing Degree Days 26 (Base 50)    
Moisture  
Dew Point 70 °F    
Average Humidity 81    
Maximum Humidity 94    
Minimum Humidity 58    
Precipitation  
Precipitation 0.00 in - - ()
Sea Level Pressure  
Sea Level Pressure 29.87 in    
Wind  
Wind Speed 4 mph (SW)    
Max Wind Speed 8 mph    
Max Gust Speed -    
Visibility 10 miles    
Events Thunderstorm    
Averages and records for this station are not official NWS values.
T = Trace of Precipitation, MM = Missing Value Source: NWS Daily Summary

Daily Weather History Graph

Daily Weather History Graph

Search for Another Location

Airport or City:

Trip Planner

Search our weather history database for the weather conditions in past years. The results will help you decide how hot, cold, wet, or windy it might be!

Date:

Astronomy

Aug. 25, 2013 Rise Set
Actual Time 6:28 AM CDT 8:17 PM CDT
Civil Twilight 5:54 AM CDT 8:50 PM CDT
Nautical Twilight 5:13 AM CDT 9:31 PM CDT
Astronomical Twilight 4:27 AM CDT 10:17 PM CDT
Moon 10:16 PM CDT (8/25) 12:02 PM CDT (8/25)
Length of Visible Light 14h 55m
Length of Day
13h 48m
Waning Gibbous, 75% of the Moon is Illuminated
Aug 25
Waning Gibbous
Aug 28
Last Quarter
Sep 5
New
Sep 12
First Quarter
Sep 19
Full

Hourly Weather History & Observations

Time (CDT) Temp. Heat Index Dew Point Humidity Pressure Visibility Wind Dir Wind Speed Gust Speed Precip Events Conditions
12:14 AM 71.6 °F - 68.0 °F 88% 29.78 in 10.0 mi SSE 5.8 mph - N/A Thunderstorm Mostly Cloudy
12:34 AM 71.6 °F - 66.2 °F 83% 29.79 in 10.0 mi South 6.9 mph - N/A Thunderstorm Scattered Clouds
12:54 AM 69.8 °F - 66.2 °F 88% 29.79 in 10.0 mi South 6.9 mph - N/A   Clear
1:14 AM 69.8 °F - 64.4 °F 83% 29.78 in 10.0 mi South 4.6 mph - N/A   Clear
1:34 AM 68.0 °F - 64.4 °F 88% 29.79 in 10.0 mi South 5.8 mph - N/A   Clear
1:54 AM 66.2 °F - 64.4 °F 94% 29.78 in 10.0 mi SW 6.9 mph - N/A   Clear
2:14 AM 68.0 °F - 64.4 °F 88% 29.79 in 10.0 mi Calm Calm - N/A   Clear
2:34 AM 68.0 °F - 64.4 °F 88% 29.79 in 10.0 mi WSW 3.5 mph - N/A   Clear
2:53 AM 66.2 °F - 64.4 °F 94% 29.79 in 10.0 mi Calm Calm - N/A   Clear
3:14 AM 66.2 °F - 62.6 °F 88% 29.80 in 10.0 mi Calm Calm - N/A   Clear
3:34 AM 66.2 °F - 62.6 °F 88% 29.80 in 10.0 mi SW 6.9 mph - N/A   Clear
3:53 AM 68.0 °F - 64.4 °F 88% 29.80 in 10.0 mi SSW 5.8 mph - N/A   Clear
4:14 AM 68.0 °F - 64.4 °F 88% 29.80 in 10.0 mi SSW 5.8 mph - N/A   Clear
4:34 AM 69.8 °F - 64.4 °F 83% 29.80 in 10.0 mi SW 5.8 mph - N/A   Clear
4:54 AM 69.8 °F - 66.2 °F 88% 29.80 in 10.0 mi SW 6.9 mph - N/A   Clear
5:14 AM 69.8 °F - 66.2 °F 88% 29.82 in 10.0 mi SW 8.1 mph - N/A   Clear
5:34 AM 69.8 °F - 66.2 °F 88% 29.82 in 10.0 mi SW 5.8 mph - N/A   Clear
5:54 AM 69.8 °F - 64.4 °F 83% 29.83 in 10.0 mi SW 8.1 mph - N/A   Clear
6:14 AM 69.8 °F - 66.2 °F 88% 29.83 in 10.0 mi SW 6.9 mph - N/A   Clear
6:34 AM 69.8 °F - 64.4 °F 83% 29.83 in 10.0 mi SW 5.8 mph - N/A   Clear
6:54 AM 69.8 °F - 64.4 °F 83% 29.83 in 10.0 mi SW 6.9 mph - N/A   Clear
7:14 AM 69.8 °F - 64.4 °F 83% 29.84 in 10.0 mi SW 5.8 mph - N/A   Clear
7:34 AM 69.8 °F - 66.2 °F 88% 29.85 in 10.0 mi WSW 5.8 mph - N/A   Clear
7:54 AM 69.8 °F - 66.2 °F 88% 29.85 in 10.0 mi WSW 5.8 mph - N/A   Clear
8:14 AM 71.6 °F - 66.2 °F 83% 29.86 in 10.0 mi West 5.8 mph - N/A   Clear
8:34 AM 73.4 °F - 69.8 °F 88% 29.86 in 10.0 mi West 4.6 mph - N/A   Clear
8:54 AM 73.4 °F - 69.8 °F 88% 29.87 in 10.0 mi WSW 5.8 mph - N/A   Clear
9:14 AM 75.2 °F - 69.8 °F 83% 29.88 in 10.0 mi West 5.8 mph - N/A   Clear
9:34 AM 75.2 °F - 69.8 °F 83% 29.88 in 10.0 mi West 6.9 mph - N/A   Clear
9:54 AM 77.0 °F - 71.6 °F 83% 29.88 in 10.0 mi West 8.1 mph - N/A   Clear
10:14 AM 78.8 °F - 71.6 °F 78% 29.89 in 10.0 mi West 6.9 mph - N/A   Clear
10:34 AM 78.8 °F - 71.6 °F 78% 29.89 in 10.0 mi WNW 5.8 mph - N/A   Clear
10:54 AM 80.6 °F 85.4 °F 73.4 °F 79% 29.89 in 10.0 mi West 5.8 mph - N/A   Clear
11:14 AM 80.6 °F 85.4 °F 73.4 °F 79% 29.90 in 10.0 mi SW 4.6 mph - N/A   Clear
11:34 AM 80.6 °F 85.4 °F 73.4 °F 79% 29.90 in 10.0 mi SSW 4.6 mph - N/A   Clear
11:54 AM 82.4 °F 88.2 °F 73.4 °F 74% 29.90 in 10.0 mi SW 3.5 mph - N/A   Clear
12:14 PM 82.4 °F 89.5 °F 75.2 °F 79% 29.89 in 10.0 mi WSW 3.5 mph - N/A   Clear
12:34 PM 84.2 °F 92.3 °F 75.2 °F 74% 29.90 in 10.0 mi West 3.5 mph - N/A   Clear
12:54 PM 84.2 °F 92.3 °F 75.2 °F 74% 29.90 in 10.0 mi Calm Calm - N/A   Clear
1:14 PM 84.2 °F 92.3 °F 75.2 °F 74% 29.90 in 10.0 mi Calm Calm - N/A   Clear
1:33 PM 86.0 °F 95.1 °F 75.2 °F 70% 29.89 in 10.0 mi Calm Calm - N/A   Clear
1:54 PM 86.0 °F 95.1 °F 75.2 °F 70% 29.89 in 10.0 mi WNW 3.5 mph - N/A   Clear
2:14 PM 87.8 °F 93.8 °F 71.6 °F 58% 29.90 in 10.0 mi Calm Calm - N/A   Clear
2:33 PM 87.8 °F 97.6 °F 75.2 °F 66% 29.90 in 10.0 mi Calm Calm - N/A   Scattered Clouds
2:54 PM 87.8 °F 95.6 °F 73.4 °F 62% 29.90 in 10.0 mi Calm Calm - N/A   Scattered Clouds
3:14 PM 87.8 °F 95.6 °F 73.4 °F 62% 29.90 in 10.0 mi Calm Calm - N/A   Clear
3:33 PM 87.8 °F 97.6 °F 75.2 °F 66% 29.89 in 10.0 mi Calm Calm - N/A   Clear
3:54 PM 87.8 °F 97.6 °F 75.2 °F 66% 29.89 in 10.0 mi Calm Calm - N/A   Clear
4:14 PM 87.8 °F 97.6 °F 75.2 °F 66% 29.89 in 10.0 mi West 4.6 mph - N/A   Clear
4:34 PM 87.8 °F 102.5 °F 78.8 °F 75% 29.90 in 10.0 mi East 5.8 mph - N/A   Clear
4:53 PM 84.2 °F 92.3 °F 75.2 °F 74% 29.90 in 10.0 mi East 4.6 mph - N/A   Clear
5:14 PM 84.2 °F 94.1 °F 77.0 °F 79% 29.91 in 10.0 mi ENE 3.5 mph - N/A   Clear
5:33 PM 84.2 °F 92.3 °F 75.2 °F 74% 29.91 in 10.0 mi ENE 3.5 mph - N/A   Clear
5:54 PM 84.2 °F 92.3 °F 75.2 °F 74% 29.91 in 10.0 mi East 3.5 mph - N/A   Clear
6:13 PM 84.2 °F 92.3 °F 75.2 °F 74% 29.91 in 10.0 mi ENE 3.5 mph - N/A   Clear
6:34 PM 84.2 °F 92.3 °F 75.2 °F 74% 29.91 in 10.0 mi Calm Calm - N/A   Clear
6:54 PM 82.4 °F 89.5 °F 75.2 °F 79% 29.91 in 10.0 mi Calm Calm - N/A   Clear
7:13 PM 82.4 °F 89.5 °F 75.2 °F 79% 29.91 in 10.0 mi Calm Calm - N/A   Clear
7:34 PM 80.6 °F 86.2 °F 75.2 °F 84% 29.91 in 10.0 mi Calm Calm - N/A   Clear
7:54 PM 80.6 °F 86.2 °F 75.2 °F 84% 29.91 in 10.0 mi Calm Calm - N/A   Clear
8:13 PM 78.8 °F - 75.2 °F 89% 29.92 in 10.0 mi Calm Calm - N/A   Clear
8:34 PM 77.0 °F - 73.4 °F 89% 29.92 in 10.0 mi Calm Calm - N/A   Clear
8:54 PM 75.2 °F - 71.6 °F 89% 29.93 in 10.0 mi Calm Calm - N/A   Clear
9:13 PM 75.2 °F - 71.6 °F 89% 29.94 in 7.0 mi Calm Calm - N/A   Clear
9:34 PM 75.2 °F - 71.6 °F 89% 29.95 in 10.0 mi Calm Calm - N/A   Clear
9:54 PM 73.4 °F - 69.8 °F 88% 29.95 in 10.0 mi Calm Calm - N/A   Clear
10:13 PM 73.4 °F - 69.8 °F 88% 29.95 in 7.0 mi Calm Calm - N/A   Clear
10:34 PM 71.6 °F - 68.0 °F 88% 29.95 in 7.0 mi Calm Calm - N/A   Clear
10:54 PM 71.6 °F - 68.0 °F 88% 29.95 in 10.0 mi Calm Calm - N/A   Clear
11:14 PM 69.8 °F - 66.2 °F 88% 29.95 in 7.0 mi Calm Calm - N/A   Clear
11:34 PM 71.6 °F - 66.2 °F 83% 29.94 in 7.0 mi Calm Calm - N/A   Clear
11:53 PM 69.8 °F - 64.4 °F 83% 29.94 in 7.0 mi WNW 3.5 mph - N/A   Clear